カタログに戻る

STARLINK-5869

運用中通信VLEO
NORAD 57061·PAYLOAD·🇺🇸 United States

打ち上げ Jun 22, 2023 から Vandenberg Space Force Base

Loading…

次のパス (今後24時間)

TLE

最新Source: CelesTrak SupGP

元期: Sep 14, 2026, 20:43 UTC

1 57061C 23088P   26257.86368056 -.00057309  00000+0 -20760-2 0  2573
2 57061  42.9995 125.5591 0001292 254.3713 185.0649 15.27602093    15

AllMySatでSTARLINK-5869をリアルタイム追跡

Download on the App Store